Location: Unspecified
(0.0000°N, 0.0000°E)
Time: 23:47:26
(UTC+00:00)

deb Explorer IX - Pass Details

Date: 19 December 2018
Orbit: 538 x 1115 km, 38.8° (Epoch: 17 January)

Event Time Altitude Azimuth Distance (km) Brightness Sun altitude
Rises 23:36:53 0° 334° (NNW) 2,787 - -66.1°
Reaches altitude 10° 23:39:24 10° 349° (NNW) 1,955 - -66.2°
Maximum altitude 23:43:03 24° 43° (NE) 1,360 - -66.3°
Drops below altitude 10° 23:47:10 10° 97° (E) 2,219 - -66.4°
Sets 23:50:12 0° 110° (ESE) 3,262 - -66.5°
